GFSSE_925_temp_054.txt.gz
Temp
18 18 18 18 17 18 19 19 19 19 18 18 19 19 17 16 16 17 16 16 16 17 17 17 19 18 17 17 17 17 17 17 16 15 16 16 15 15 15 15 16 15 15
18 18 18 18 17 17 19 19 19 18 17 18 18 17 17 17 17 17 16 16 16 17 16 16 18 19 18 17 17 17 17 17 17 16 16 15 15 15 15 14 14 14 14
18 18 18 18 17 18 19 19 19 19 19 18 17 16 17 17 17 16 16 16 16 16 16 17 18 19 17 17 17 17 17 17 16 16 15 15 15 15 14 14 14 14 14
18 18 18 17 17 18 18 19 19 19 19 19 16 16 16 17 16 16 16 16 16 16 16 17 18 18 17 17 17 17 17 16 16 15 15 14 14 14 14 14 14 14 14
18 18 18 18 17 18 18 18 19 19 18 18 17 16 16 16 16 16 16 16 16 16 16 17 18 17 17 17 17 16 16 16 15 15 15 14 14 14 13 13 13 13 13
18 18 18 17 17 18 18 18 18 18 17 17 16 16 16 16 17 17 17 16 16 16 16 17 17 17 17 17 16 16 16 16 15 15 14 14 14 14 13 13 12 13 13
17 17 17 18 17 17 17 18 19 18 17 16 16 16 16 16 17 18 18 17 16 16 17 17 17 17 17 16 16 16 16 15 15 14 14 13 13 13 13 12 12 12 12
17 17 16 16 16 16 18 18 17 18 17 16 16 16 16 17 18 18 18 18 18 17 16 16 16 16 16 16 16 15 15 15 15 14 13 13 13 13 12 12 11 11 11
17 18 16 14 14 15 18 17 17 16 16 17 16 17 17 17 18 18 17 17 17 17 17 16 16 16 16 16 15 15 15 14 14 14 13 13 12 12 12 11 11 11 11
16 16 12 12 14 16 17 17 17 16 17 17 17 17 17 17 17 17 17 17 17 17 17 16 16 16 15 15 15 15 15 14 14 13 13 13 12 12 11 11 11 10 10
13 14 15 13 14 16 17 17 16 17 18 17 17 17 17 17 17 17 16 16 16 16 16 16 16 15 15 15 14 14 14 14 14 13 13 13 12 12 11 11 10 10 10
13 12 13 14 15 15 16 16 19 17 17 17 17 16 16 17 16 16 16 16 16 16 16 16 15 15 15 15 14 13 13 13 13 13 13 12 12 12 11 10 10 10 10
13 14 14 15 16 17 17 20 17 16 16 16 16 16 16 16 16 16 16 16 16 16 15 15 15 15 15 14 13 13 13 12 12 12 12 12 12 12 11 10 10 9 9
13 15 16 17 18 18 17 17 17 17 17 16 16 16 16 16 16 16 16 15 16 15 15 15 15 14 14 14 13 12 12 12 12 12 12 12 12 11 11 11 10 9 9
13 14 16 17 17 17 16 17 17 17 16 16 16 16 16 16 16 16 15 15 15 15 15 14 14 14 14 13 12 12 11 11 11 11 11 11 11 11 11 10 10 9 9
13 14 16 17 17 17 16 16 16 16 16 16 16 16 16 16 16 16 15 15 15 14 14 14 13 13 12 12 12 11 11 10 10 10 11 10 10 10 9 9 9 9 9
14 14 15 16 16 16 16 16 16 16 16 16 16 16 16 16 16 15 15 14 14 14 14 13 13 12 12 11 11 10 10 9 9 9 10 9 9 9 9 8 8 8 8
14 15 15 15 16 16 16 16 16 16 16 16 16 16 16 16 15 15 15 14 14 13 13 13 12 12 11 11 10 10 9 9 9 9 9 9 9 8 8 8 8 8 8
15 15 16 16 16 16 16 16 16 16 15 15 15 15 15 16 15 15 15 14 13 13 13 12 11 11 10 10 9 9 9 8 8 8 8 8 8 8 8 7 7 7 7
16 16 16 16 16 16 16 15 15 15 14 14 15 15 15 15 15 14 14 13 13 13 12 11 11 10 9 9 9 9 8 8 8 8 8 7 7 7 7 7 7 7 6
16 16 16 16 16 16 15 14 14 14 14 14 14 14 15 15 14 14 14 13 12 12 12 11 10 10 8 8 8 8 7 7 7 7 7 7 7 7 6 6 6 6 6
16 16 16 16 16 16 16 15 15 14 14 13 13 13 14 14 14 13 13 13 13 12 11 11 10 9 8 7 7 6 4 6 7 7 7 7 6 6 6 5 5 5 5
17 16 16 16 16 16 16 15 14 13 13 12 13 13 13 13 13 13 13 13 12 11 11 10 9 9 8 7 7 7 3 3 3 6 6 6 6 5 5 4 4 4 4
16 16 16 16 16 16 15 15 14 14 13 13 14 14 13 13 13 12 12 12 11 11 10 9 8 8 7 7 6 6 6 5 2 2 5 5 5 4 4 3 3 3 3
15 15 16 16 16 15 15 14 14 14 13 14 13 13 13 12 12 12 11 11 10 9 9 8 8 7 7 6 6 5 5 5 4 2 2 2 4 3 3 3 3 2 2
16 15 15 15 15 14 14 14 14 13 13 13 13 12 12 11 11 11 11 10 9 9 8 7 7 7 6 6 5 5 4 4 3 2 -0 1 3 2 2 3 2 2 2

GFSSE_925_temp_057.txt.gz
Temp
18 18 19 19 20 20 20 20 20 20 20 19 19 19 19 17 17 17 18 18 18 17 17 16 16 16 16 18 18 18 18 17 16 16 16 16 15 15 15 15 16 16 15
18 18 19 19 19 20 20 20 20 19 19 19 20 19 18 17 17 17 17 18 18 17 18 17 16 16 17 18 17 17 16 17 16 16 15 15 15 15 14 14 15 15 14
18 18 18 18 19 20 20 20 20 20 20 19 19 18 17 16 17 17 17 17 17 17 17 17 16 16 17 17 17 17 17 16 16 16 15 16 15 14 14 14 14 14 14
17 17 17 17 17 18 18 19 19 17 17 19 18 16 16 16 16 17 17 17 17 17 17 16 16 17 17 17 17 17 16 16 16 15 16 16 15 14 14 14 14 14 14
17 17 17 17 17 16 16 17 17 17 18 17 17 16 16 16 16 17 17 17 17 17 16 16 17 18 17 17 17 16 16 16 15 15 15 15 15 14 13 13 13 13 13
17 17 17 17 17 17 17 17 18 19 18 17 16 16 16 16 16 17 17 17 17 18 18 18 17 17 17 16 16 16 16 15 15 15 15 14 14 13 12 12 12 12 12
17 18 17 17 17 17 18 19 19 17 17 16 16 16 16 16 16 16 17 17 18 18 17 17 17 17 16 16 16 15 15 15 14 14 15 14 13 13 12 12 11 11 12
16 16 16 17 16 15 15 16 17 17 17 16 17 16 16 16 16 16 16 17 17 17 17 17 16 16 16 15 15 15 15 15 14 14 14 14 13 12 12 11 11 11 11
16 17 15 12 12 12 14 15 17 17 16 16 16 17 17 17 16 16 16 16 16 16 16 16 16 16 15 15 15 15 14 14 14 14 14 14 12 12 12 11 11 11 11
14 15 14 14 14 13 13 15 16 16 16 16 17 17 17 17 17 16 16 16 16 16 15 16 15 15 15 15 15 14 14 14 13 13 13 13 12 12 11 11 11 10 10
12 13 13 14 13 13 13 16 16 16 17 16 17 17 17 16 17 16 16 16 16 15 15 15 15 15 15 14 14 14 14 13 13 13 13 12 12 12 11 10 10 10 10
13 12 12 12 13 14 15 15 15 16 16 17 17 17 17 17 16 16 16 16 16 16 15 15 15 14 14 14 13 14 13 13 13 12 12 13 12 12 11 10 10 10 10
12 12 13 14 15 16 16 15 15 15 16 16 17 16 16 16 15 16 15 16 15 15 15 15 15 14 14 14 13 13 12 12 11 12 12 12 12 12 11 10 10 9 9
12 13 13 13 14 15 16 15 15 17 17 17 16 16 16 16 16 15 16 15 15 15 15 15 14 14 14 13 13 12 12 11 11 11 11 12 12 12 11 11 10 10 9
14 13 13 13 14 15 15 16 17 17 17 17 16 16 16 16 16 15 15 15 15 15 15 14 14 14 13 13 12 12 12 11 11 11 10 11 11 11 11 10 10 10 9
15 14 13 13 15 16 17 17 17 17 17 16 16 16 16 16 16 15 15 15 15 14 14 14 14 13 13 12 12 11 11 11 10 11 9 10 10 10 10 9 9 9 9
15 15 14 15 17 17 17 17 16 16 16 16 16 16 15 16 16 15 15 14 14 14 14 13 13 13 12 11 11 11 10 10 10 10 10 9 9 9 9 8 8 8 8
15 15 15 15 16 16 16 17 16 16 16 16 16 16 15 15 15 15 14 14 14 13 13 13 13 12 11 10 10 10 9 9 9 9 9 9 9 9 8 8 8 8 8
15 15 15 15 16 16 16 16 16 16 16 16 16 16 15 15 14 14 14 14 13 13 13 13 12 11 10 10 10 9 9 8 8 8 8 8 8 7 7 7 7 7 7
15 15 15 15 15 15 16 15 15 15 15 15 15 15 15 14 14 14 14 14 13 13 12 12 12 11 10 10 9 9 8 7 7 7 7 7 7 7 7 7 6 6 6
15 15 15 15 15 15 15 14 14 14 14 14 15 14 14 14 14 14 14 13 13 13 12 12 11 10 9 9 9 9 8 7 6 7 6 6 6 6 6 5 5 5 5
16 15 15 16 16 15 15 15 14 14 14 14 14 14 14 14 14 14 14 13 13 12 12 11 10 9 8 8 9 8 11 9 7 7 6 6 6 6 5 5 4 4 4
15 15 15 15 16 15 14 15 15 14 14 13 13 13 13 13 13 13 13 13 12 12 11 11 10 9 9 7 7 8 10 10 8 7 6 6 5 5 4 4 4 3 3
16 15 16 16 15 15 15 15 14 14 13 12 11 12 12 12 13 13 13 12 12 11 11 10 10 9 8 8 6 6 6 7 9 9 7 5 4 5 4 4 3 2 2
16 15 15 15 15 15 15 14 14 13 13 13 12 13 12 12 12 12 12 11 11 11 10 9 9 8 7 7 6 6 5 6 5 6 8 7 5 5 4 4 3 2 1
15 15 15 14 14 14 13 13 13 12 12 12 12 12 12 11 11 11 11 11 11 10 9 8 7 7 7 6 6 6 5 6 7 6 6 6 5 5 3 3 3 2 1

GFSSE_925_temp_060.txt.gz
Temp
20 20 18 18 18 18 18 19 19 19 19 19 18 18 18 18 18 18 18 17 17 17 17 17 17 17 16 16 17 17 17 17 16 16 16 15 15 15 15 16 17 16 15
20 20 18 18 18 18 18 18 19 19 18 18 17 18 18 19 18 18 18 17 17 17 17 17 17 16 17 18 18 17 17 17 17 17 17 16 15 15 15 14 15 15 14
20 20 18 18 18 18 17 18 18 18 18 18 18 18 18 18 18 18 17 17 17 17 17 16 16 17 17 17 17 17 17 17 17 17 18 18 16 15 14 14 14 15 14
20 19 19 17 17 17 19 19 19 18 18 18 18 18 18 18 18 18 17 17 17 17 17 16 16 16 17 17 17 17 17 17 17 18 19 18 16 14 14 14 14 14 14
20 19 19 18 18 18 18 19 18 18 18 16 17 17 18 18 18 18 17 17 17 17 16 16 16 17 17 17 17 16 16 16 17 18 18 17 16 13 13 13 14 13 13
19 19 18 17 17 18 19 18 17 16 16 16 17 17 17 18 17 17 17 17 17 16 16 16 17 17 17 17 16 16 16 16 18 18 18 15 15 13 12 12 12 12 12
17 18 17 17 16 16 16 16 16 16 16 16 17 17 17 17 17 17 17 17 16 16 16 17 17 17 17 16 16 16 16 16 18 18 17 16 14 12 12 12 12 12 11
17 16 16 16 16 15 15 16 15 15 16 16 16 16 17 17 17 17 17 17 17 17 17 17 16 16 16 16 15 15 15 16 17 17 17 15 12 12 12 12 11 11 11
15 15 14 14 14 13 14 14 16 15 15 16 16 16 17 17 17 17 17 17 17 17 16 16 16 16 15 15 15 15 15 15 17 16 17 15 12 12 12 11 11 11 11
13 14 14 15 15 13 13 14 15 15 15 16 16 16 17 17 17 17 17 17 16 16 16 16 16 15 15 15 15 15 15 15 16 17 16 13 12 12 11 11 11 11 11
13 12 12 13 13 13 13 13 14 15 16 16 17 17 16 16 16 16 16 16 16 16 16 16 15 15 15 15 14 14 15 16 16 16 15 12 12 12 11 11 10 10 10
12 12 11 11 11 11 12 14 15 16 15 16 17 16 17 16 17 16 15 16 15 15 15 15 14 15 15 15 14 14 15 14 15 15 14 13 12 12 11 10 10 10 10
12 11 11 11 11 13 14 14 15 15 16 16 16 16 16 16 15 15 14 14 14 15 14 14 14 15 14 14 14 14 14 14 15 15 13 13 13 12 11 10 10 10 10
11 11 11 12 13 14 14 15 15 16 17 16 15 16 16 16 16 16 16 15 15 15 14 14 14 13 13 13 13 13 13 14 14 14 13 12 12 12 11 11 10 10 9
13 13 13 13 14 15 15 16 16 16 16 16 16 15 16 16 16 16 15 15 15 14 14 14 13 14 13 13 13 13 13 12 13 13 13 11 11 11 11 11 10 10 10
14 13 13 13 15 15 16 16 16 16 16 16 16 16 15 16 15 15 15 15 14 15 15 14 14 14 14 13 13 12 12 13 12 12 13 11 11 11 10 10 10 10 9
15 15 15 16 16 16 16 16 16 16 16 17 16 15 15 15 14 15 15 14 14 14 13 13 13 13 14 14 13 12 13 12 12 12 12 12 11 10 9 9 8 8 8
18 17 17 17 16 16 16 16 17 16 16 17 16 16 15 15 14 14 13 14 13 13 14 13 14 14 14 14 13 13 12 12 11 11 11 12 12 12 10 9 9 8 8
18 18 17 17 17 16 16 17 17 16 16 17 16 16 15 14 13 13 14 13 12 13 12 13 13 14 14 14 14 13 12 12 11 11 11 10 10 10 10 10 8 8 7
18 18 18 17 17 16 16 16 16 16 16 16 16 16 15 14 13 13 13 13 13 13 13 13 13 13 14 13 13 13 12 11 11 11 11 10 10 9 9 8 9 9 7
19 18 18 18 17 16 16 17 17 17 17 16 16 15 14 13 12 12 13 12 13 13 13 12 12 12 12 12 13 13 12 10 10 11 10 10 10 9 8 8 7 8 8
20 19 18 18 18 17 17 17 17 17 17 17 16 15 14 13 13 13 13 12 12 13 12 12 12 12 12 11 13 12 15 14 11 10 10 10 9 9 9 8 7 6 6
19 19 19 19 18 17 18 17 17 17 16 16 15 13 13 12 13 13 12 12 12 13 12 12 12 12 13 11 10 11 14 15 13 12 10 9 9 8 8 8 7 6 6
20 19 19 19 18 18 17 18 17 18 17 17 16 13 14 13 13 13 11 11 12 12 13 12 11 12 12 12 9 9 9 11 13 13 12 10 8 8 8 7 7 6 5
20 19 18 19 18 18 17 17 17 17 18 18 15 14 13 12 11 11 11 12 11 12 12 11 10 10 9 8 8 9 9 10 9 10 11 12 10 9 8 7 6 6 5
21 20 18 18 18 18 17 16 17 17 17 15 14 13 13 12 11 11 10 11 11 12 11 10 9 8 7 7 6 6 8 10 11 10 11 10 10 9 8 6 6 5 5

GFSSE_925_temp_063.txt.gz
Temp
23 21 20 19 19 19 19 19 19 19 20 20 20 19 19 19 18 18 18 18 18 18 17 17 17 16 16 16 17 17 17 17 17 17 16 16 15 15 16 17 17 16 15
22 21 19 19 19 19 18 18 18 19 19 19 19 19 19 18 18 17 18 18 18 17 17 17 16 16 16 17 18 17 17 17 17 17 18 16 15 15 15 15 15 15 15
22 21 19 19 19 19 18 17 18 19 19 19 19 18 18 18 18 17 17 18 17 17 17 16 16 16 16 17 17 17 17 18 19 19 19 18 15 15 14 14 14 14 15
21 20 20 19 19 18 18 17 18 18 19 18 18 18 18 18 18 18 17 18 17 17 17 16 16 16 17 17 17 17 18 18 19 20 20 18 16 14 14 14 13 14 14
20 19 19 18 18 18 17 17 18 18 17 18 18 17 18 18 18 18 17 17 17 16 16 16 16 17 17 17 17 17 18 18 19 19 18 17 16 13 13 13 13 13 13
20 19 18 18 17 17 16 17 16 17 17 17 17 17 17 17 17 17 17 17 17 16 16 16 17 17 17 17 17 17 18 18 19 19 17 15 14 13 13 12 12 12 12
17 17 17 17 16 16 16 16 16 16 16 17 16 17 17 17 17 17 17 17 17 16 17 17 17 16 16 16 16 17 17 19 20 19 17 15 13 12 12 12 12 12 11
17 16 16 15 15 15 16 16 16 16 16 16 16 17 17 17 17 17 17 17 16 17 17 17 17 16 16 16 16 16 17 18 19 19 17 14 12 12 12 12 11 11 11
16 18 16 15 15 14 14 14 15 16 16 16 16 17 17 17 17 17 17 17 17 17 17 17 16 16 16 16 16 16 17 18 19 18 17 14 12 12 12 11 11 11 11
15 15 14 14 15 14 14 15 15 16 16 16 16 17 17 17 17 17 17 17 17 17 16 16 16 16 16 15 15 16 17 18 18 18 16 13 12 12 11 11 11 11 11
12 12 12 13 14 14 14 13 14 15 15 16 17 18 17 17 17 17 16 17 17 16 16 16 16 16 15 15 15 16 17 17 18 18 15 12 12 12 11 11 11 10 10
12 11 11 12 11 12 11 12 13 14 16 16 16 16 17 17 16 16 16 16 16 16 16 16 16 16 16 17 16 16 16 16 17 17 14 12 12 11 11 11 10 10 10
12 12 11 11 11 12 12 12 14 15 15 15 16 17 17 16 17 15 15 14 15 15 15 15 16 16 16 16 16 16 16 17 17 17 14 13 12 12 11 10 10 10 10
12 11 11 11 11 12 12 13 15 15 15 15 16 16 16 16 16 16 16 16 15 16 15 16 16 14 15 15 14 14 14 16 15 16 13 13 12 12 11 10 10 10 10
12 11 11 12 12 13 14 14 15 15 16 16 16 16 16 17 17 17 17 16 16 16 16 16 15 15 15 15 15 14 14 14 15 16 13 12 12 12 11 11 10 10 10
12 12 12 12 13 14 15 16 17 17 17 17 16 16 17 17 17 17 16 17 17 16 16 16 16 15 16 15 14 14 14 15 14 14 14 11 11 11 10 10 10 10 10
13 12 12 13 14 16 16 17 17 17 17 17 17 17 16 17 16 17 16 16 16 16 16 16 15 15 16 16 15 14 15 14 14 14 14 13 11 11 11 10 9 9 9
14 14 14 16 16 17 17 18 18 18 17 17 18 17 16 16 16 16 17 16 16 15 15 15 15 16 16 16 16 15 15 14 13 13 13 14 14 12 10 10 10 9 9
17 17 17 18 18 18 18 18 18 18 17 18 18 18 16 16 16 16 16 15 15 15 15 15 16 16 16 16 16 15 14 14 13 14 13 12 12 11 12 10 10 9 9
20 19 19 18 18 18 18 18 18 18 18 19 18 19 17 16 15 15 15 15 14 15 15 15 15 15 16 16 16 15 14 14 14 13 13 12 12 11 10 10 10 10 9
20 19 19 19 18 18 19 18 19 19 18 18 19 19 17 16 15 14 16 15 13 15 15 15 14 15 15 14 15 15 15 13 12 13 13 12 12 11 11 10 9 9 9
20 20 20 19 19 19 19 19 20 20 19 19 19 19 16 15 14 14 15 15 14 15 15 14 14 14 15 14 15 15 16 15 13 12 12 12 12 11 11 10 9 8 8
21 20 21 21 20 20 20 20 20 20 20 19 19 19 16 15 15 14 14 15 14 14 14 13 13 14 15 13 13 14 15 13 13 14 13 12 11 11 10 10 9 9 8
22 21 21 21 21 21 20 21 20 20 20 20 19 19 16 15 14 14 14 14 13 13 14 13 13 14 14 14 12 10 10 10 12 13 14 13 11 10 9 9 9 8 8
22 22 21 21 21 21 20 20 20 20 20 20 19 19 15 15 14 14 14 13 12 12 13 13 13 13 13 14 10 9 9 9 11 11 12 13 13 12 11 10 9 8 7
23 22 21 21 21 21 21 20 20 20 19 20 20 18 16 15 14 13 13 11 12 12 12 13 13 12 11 9 9 8 8 9 11 10 12 12 12 12 11 10 8 7 7

GFSSE_925_temp_069.txt.gz
Temp
19 19 19 19 19 18 20 20 21 21 21 21 21 20 20 20 19 18 18 17 17 17 17 16 16 17 16 16 16 16 16 16 16 15 16 15 15 15 15 15 15 15 15
19 19 19 19 19 19 19 20 20 20 21 20 20 20 19 19 18 18 17 17 17 17 16 16 17 17 17 16 16 16 16 15 15 15 14 15 15 15 14 15 15 14 15
21 22 20 18 19 18 19 19 20 20 20 20 20 19 18 18 18 17 17 17 16 16 16 16 17 18 17 17 16 16 16 17 15 15 14 14 14 14 14 14 14 14 14
21 22 20 19 17 19 18 19 19 19 19 19 19 17 18 18 17 17 17 17 16 16 16 16 18 18 18 18 18 17 16 16 15 15 14 13 13 13 13 13 13 14 14
20 22 20 20 19 18 18 19 19 19 19 18 18 17 18 17 17 17 17 16 16 16 16 18 18 18 18 18 18 18 16 16 16 15 13 12 13 13 13 12 12 13 13
17 17 19 19 18 19 18 17 17 18 18 18 18 17 17 17 17 17 16 16 17 17 18 18 18 18 18 18 18 17 17 17 17 14 12 12 12 12 12 12 12 12 12
18 18 18 17 17 17 17 17 18 18 17 18 17 17 17 17 17 17 16 17 18 18 18 18 18 18 18 18 18 16 15 16 16 14 12 12 12 12 12 12 12 12 12
17 17 17 16 15 18 13 16 17 17 17 17 17 17 17 17 17 17 18 18 18 18 17 17 18 18 18 18 18 17 15 16 16 14 12 12 12 12 12 11 11 11 11
15 15 16 17 18 18 13 15 15 16 16 17 17 17 16 16 17 17 18 18 17 17 17 17 17 18 18 18 18 18 16 15 15 14 13 12 12 12 11 11 11 11 11
14 13 14 14 16 15 14 14 13 14 16 16 16 16 16 16 17 17 17 17 17 17 17 17 17 18 17 18 18 17 16 14 14 14 13 12 12 12 11 11 11 11 11
13 13 12 13 13 14 14 13 13 13 17 17 16 16 16 16 16 17 17 17 17 17 17 17 17 17 17 17 17 17 16 16 15 15 13 12 12 11 11 11 10 10 10
12 12 12 13 14 14 12 13 12 13 16 17 17 17 16 16 17 17 17 17 17 16 16 16 16 16 16 16 16 17 16 16 15 14 13 12 11 11 11 11 10 10 10
12 12 12 12 11 12 12 12 13 13 16 16 16 16 16 16 17 17 16 17 16 16 16 16 16 15 16 16 16 16 16 15 15 14 13 12 11 11 11 10 10 10 10
12 12 12 12 12 13 12 13 14 15 16 16 16 16 16 16 17 16 17 16 16 16 16 16 15 15 16 16 16 16 15 15 15 14 13 12 11 11 11 10 10 10 9
11 11 12 12 12 12 13 13 14 15 16 16 16 16 16 17 17 17 16 16 16 16 16 15 15 16 15 15 15 15 15 14 14 14 14 13 12 11 11 11 10 10 10
11 11 12 12 12 12 12 13 14 15 16 16 16 16 16 16 17 17 16 16 16 16 16 15 16 15 15 15 14 14 15 14 14 14 14 14 12 11 11 11 11 10 10
12 12 12 12 12 12 13 14 15 15 16 16 16 16 16 17 18 16 16 16 16 16 16 16 16 15 15 15 15 14 14 14 14 13 13 13 13 12 12 12 11 10 10
11 11 12 12 12 12 13 14 15 16 16 16 16 16 17 17 17 16 16 16 16 16 16 16 15 15 15 15 15 15 14 14 14 13 13 12 12 12 11 11 11 10 10
12 12 12 13 13 13 14 15 15 16 16 16 16 16 16 17 17 17 17 16 16 16 16 16 16 15 15 15 15 15 14 14 14 14 13 13 12 12 11 11 10 10 10
12 13 13 13 13 14 15 16 16 17 17 17 17 17 17 17 16 16 16 16 16 16 16 16 15 15 15 16 16 15 15 14 14 14 13 13 12 12 11 11 11 10 10
13 13 13 13 14 15 15 16 17 17 17 17 17 17 17 17 17 16 16 16 16 16 16 15 15 15 15 16 15 15 14 14 14 14 13 13 13 12 11 11 10 10 9
13 14 14 15 15 16 16 16 16 17 17 17 17 17 17 17 17 16 16 16 16 15 15 15 15 15 15 15 15 14 10 12 13 13 13 13 13 12 12 11 11 10 9
14 14 14 14 15 15 16 17 17 17 17 17 17 18 17 17 17 16 16 16 15 15 15 15 15 14 14 14 15 14 10 9 10 13 13 13 13 12 12 11 11 10 9
15 15 15 16 16 17 18 18 17 17 17 17 17 18 18 18 17 16 16 16 15 15 15 15 15 14 14 13 13 13 12 11 8 9 12 12 12 12 12 11 11 10 9
17 16 16 17 18 18 18 17 17 18 18 18 18 18 18 18 17 16 16 16 15 15 14 14 14 14 12 10 11 10 10 9 9 9 7 10 11 11 11 11 11 10 9
18 18 18 18 18 18 18 18 18 18 19 19 18 18 18 18 17 17 16 15 15 14 14 14 14 13 11 10 10 9 9 7 7 8 7 8 8 10 10 10 10 10 9

GFSSE_925_temp_072.txt.gz
Temp
19 19 19 20 22 21 21 20 20 21 21 21 21 20 18 18 17 17 17 17 17 17 17 17 16 16 16 16 15 15 15 15 15 15 15 16 15 15 15 15 15 15 15
19 19 20 21 21 21 21 20 20 21 21 21 20 19 17 17 17 17 17 17 16 17 17 16 16 16 16 15 15 15 15 15 15 14 15 15 15 15 14 14 14 15 15
19 18 19 20 21 19 18 20 20 20 21 20 19 18 18 17 17 17 17 17 17 17 17 16 16 15 15 15 15 15 15 15 14 13 14 14 14 14 14 14 14 14 14
17 19 18 19 20 20 20 18 20 20 20 20 19 18 18 17 17 17 17 17 17 17 17 16 16 15 16 16 16 16 16 15 15 14 13 13 13 14 14 14 14 14 14
18 17 18 19 17 22 19 17 18 19 20 19 18 17 17 17 18 18 18 17 17 17 16 16 17 17 17 17 16 16 16 15 15 14 13 13 13 13 13 13 13 13 13
22 20 17 18 20 20 19 17 17 19 19 18 18 17 17 17 17 17 17 17 17 16 16 17 17 17 17 17 16 16 16 16 15 13 12 12 12 12 12 12 12 12 12
17 18 17 15 16 14 15 15 16 17 18 17 18 17 17 17 17 17 17 18 18 18 18 18 18 17 16 16 16 16 16 15 14 12 12 12 12 12 12 12 12 11 11
16 16 16 16 18 17 15 16 16 17 17 17 17 17 17 17 17 17 17 18 18 18 18 18 18 17 16 16 16 16 15 15 15 13 12 12 12 12 12 12 11 11 11
15 15 14 14 15 16 18 15 15 15 17 17 17 16 16 16 16 17 18 18 18 18 18 18 18 17 16 16 15 15 15 15 15 13 12 12 12 12 12 11 11 11 10
14 13 13 14 16 16 16 16 14 13 16 17 16 16 16 16 17 17 18 18 17 18 18 18 17 17 17 16 16 15 15 15 15 13 12 12 12 12 11 11 11 10 10
13 13 12 13 14 15 15 14 14 14 15 16 15 16 16 16 17 17 17 17 17 17 17 17 17 17 17 16 16 15 15 14 14 13 12 11 12 11 11 11 11 10 10
12 12 12 12 12 13 12 12 12 13 14 17 16 16 16 16 17 17 17 17 17 17 17 17 17 17 17 16 16 15 15 15 14 13 12 11 11 11 11 10 10 10 10
12 12 12 12 12 13 11 12 13 13 14 17 18 18 16 17 16 17 17 17 17 17 16 16 16 16 16 16 16 15 15 15 14 13 12 11 11 11 11 10 10 10 10
12 11 12 12 11 11 11 11 12 13 14 15 16 17 17 17 17 16 17 17 17 16 16 16 16 16 16 16 16 15 15 15 14 13 12 12 11 11 11 10 10 10 9
12 12 12 12 12 11 12 12 13 14 15 16 16 16 17 16 16 17 16 16 16 16 16 16 16 15 16 15 15 15 14 14 14 14 13 12 11 11 11 11 10 10 9
12 12 12 12 12 12 13 14 14 15 15 16 16 16 17 17 16 17 16 16 16 16 16 16 16 16 15 15 15 14 14 14 14 14 13 13 12 11 11 11 11 10 10
12 12 12 12 12 12 13 14 15 15 16 16 16 16 16 16 17 16 17 16 16 16 16 15 15 15 15 15 15 15 14 14 14 14 14 13 12 12 11 11 10 10 10
12 12 12 12 12 13 14 14 15 15 16 16 16 16 16 17 17 17 17 16 16 16 16 16 16 15 15 15 15 15 14 14 14 14 13 13 12 11 11 11 11 11 10
12 12 12 12 12 12 13 14 15 15 16 16 16 16 16 16 16 16 17 16 16 16 16 16 16 15 15 15 15 15 14 14 14 14 13 12 12 12 12 11 11 11 10
11 12 12 11 12 12 14 14 15 16 16 16 16 16 16 16 16 17 17 16 16 16 16 16 16 15 15 15 15 15 15 14 14 14 14 13 12 12 12 12 11 11 10
11 12 12 11 12 12 14 14 15 15 16 16 16 16 16 16 16 16 16 16 16 16 16 16 16 15 15 15 15 14 14 14 14 14 13 13 13 13 12 12 12 11 11
12 12 12 12 12 12 13 14 14 16 16 16 17 17 17 17 17 16 16 16 16 16 16 16 15 15 15 15 14 13 11 12 13 13 13 13 12 12 12 11 11 11 10
11 12 12 13 13 13 14 15 15 16 16 16 17 17 17 17 17 16 16 16 16 16 16 15 15 15 15 14 13 13 9 10 10 12 12 13 13 12 12 11 11 10 10
13 13 13 14 14 14 14 15 16 16 16 16 16 17 17 17 17 16 16 16 16 16 15 15 15 15 15 14 12 11 10 9 8 10 11 12 12 12 12 11 11 11 10
13 13 14 14 14 14 15 15 16 15 16 16 17 17 17 17 17 17 16 16 16 15 15 15 15 14 14 13 13 8 8 9 9 7 8 10 10 10 11 11 11 10 10
14 14 14 14 14 15 15 16 15 16 17 16 16 17 17 17 17 17 16 16 16 15 15 14 14 14 14 13 13 11 10 9 7 7 6 7 7 9 10 11 10 10 10

GFSSE_925_temp_075.txt.gz
Temp
19 19 19 19 20 22 21 21 21 20 21 20 20 19 18 18 18 17 17 17 17 17 17 17 16 16 16 16 15 15 16 15 16 16 16 15 15 15 15 15 15 15 16
18 18 19 20 20 20 20 20 21 21 20 21 20 20 18 18 17 17 17 17 17 17 17 16 16 16 15 15 15 14 15 15 15 15 15 15 15 15 15 15 15 15 15
18 18 19 20 20 20 20 19 18 18 19 19 19 18 17 17 17 17 17 17 17 17 17 16 16 15 15 14 14 14 14 14 14 14 14 14 14 15 14 14 14 14 14
18 18 19 19 18 20 20 19 20 18 17 17 17 17 17 17 16 16 16 16 16 16 16 16 15 15 15 15 15 14 13 13 13 13 13 13 14 14 14 14 14 13 13
18 17 18 19 16 17 17 18 18 18 17 17 17 17 17 16 16 16 17 16 16 16 16 15 15 15 15 15 15 14 14 14 13 13 13 13 13 13 13 13 13 13 13
17 16 16 18 16 17 16 18 21 20 17 17 17 17 17 17 16 16 16 16 16 16 15 15 16 16 16 15 15 15 14 13 13 12 12 12 13 13 13 12 12 12 12
16 17 17 15 15 16 17 18 17 17 17 17 17 17 17 16 16 16 16 16 15 15 15 16 17 16 16 16 16 15 15 14 13 12 12 12 13 13 12 12 12 11 11
16 17 16 15 16 17 19 17 17 16 16 17 17 16 16 16 16 16 16 16 16 16 16 16 16 16 15 15 15 15 15 14 13 12 12 12 12 12 12 11 11 11 11
15 15 15 14 17 18 17 17 17 16 15 16 16 16 16 17 16 17 17 17 17 17 16 16 16 16 16 16 16 15 15 15 13 12 12 12 12 12 12 11 11 10 10
15 14 14 14 15 16 15 15 16 15 16 16 17 16 17 17 17 17 17 18 17 17 16 16 16 16 16 16 15 15 15 14 13 12 12 12 12 12 12 11 11 10 10
14 14 14 14 14 14 14 17 16 14 14 15 17 16 16 16 16 17 17 17 17 17 16 16 17 17 16 15 15 15 15 14 13 12 11 12 12 11 11 11 11 10 10
12 12 13 13 13 13 13 15 15 15 14 14 17 16 16 17 16 17 17 17 17 17 16 16 16 17 16 15 15 15 15 14 13 12 11 11 11 11 11 11 10 10 10
12 12 12 12 12 12 12 12 13 13 13 14 17 17 16 16 16 16 16 17 17 17 17 17 16 16 16 15 15 15 14 14 13 12 11 11 11 11 11 10 10 10 10
12 12 12 12 12 11 11 12 12 12 13 14 16 17 17 16 16 16 17 17 17 17 17 17 17 16 16 15 15 15 14 14 13 12 12 11 11 11 11 11 10 10 10
12 12 12 12 11 11 11 12 12 13 14 15 16 16 17 17 17 17 16 17 17 17 17 16 16 16 15 15 15 15 14 14 13 12 12 11 11 11 11 11 10 10 9
12 12 12 11 11 11 12 12 12 13 13 15 16 17 18 17 17 16 16 16 16 17 16 16 16 16 15 15 15 14 14 14 13 13 12 11 11 11 11 11 11 10 10
12 12 12 11 12 11 12 13 12 13 14 15 16 17 17 17 16 16 16 16 16 16 16 15 15 15 15 15 15 14 14 14 14 13 13 12 12 11 11 11 11 10 10
12 12 12 11 12 12 12 12 13 13 14 15 15 16 16 16 16 16 17 16 16 16 16 16 15 15 15 15 15 15 14 14 14 14 13 13 12 12 11 11 11 11 11
12 12 12 12 11 12 12 13 13 14 14 15 16 16 16 17 16 17 16 16 16 16 16 15 15 15 15 15 15 14 14 14 14 14 14 13 13 12 11 11 11 11 11
12 12 12 12 12 12 12 13 13 14 15 15 16 16 16 16 16 16 16 16 16 16 16 15 15 15 15 15 15 14 14 14 14 14 14 14 13 13 12 11 11 11 11
12 12 12 12 11 11 12 13 14 14 15 15 16 16 16 16 16 16 16 16 16 16 16 15 15 15 15 14 14 13 13 13 13 13 13 14 13 13 12 12 12 11 11
11 12 12 11 12 12 13 13 14 15 15 15 16 16 16 16 16 16 16 16 16 16 16 15 15 15 15 14 14 12 11 12 13 13 13 13 12 12 12 12 12 12 11
11 12 12 11 12 12 13 13 14 14 15 15 15 16 16 16 16 16 16 16 16 16 16 16 15 15 15 14 13 14 10 10 10 12 13 12 12 12 12 12 12 12 11
11 11 12 12 12 12 13 13 14 14 15 15 16 16 16 16 16 16 16 16 16 16 16 16 16 15 15 14 12 12 12 11 9 9 11 11 11 11 11 11 11 11 11
11 11 12 12 12 12 12 13 14 14 15 15 16 16 16 16 16 16 16 16 16 15 16 15 15 15 14 14 13 10 9 9 10 8 8 9 10 11 11 11 11 11 10
12 12 12 12 12 13 13 14 14 15 15 15 16 16 16 16 17 17 16 16 16 16 15 15 15 14 14 13 13 13 12 9 7 8 7 8 8 10 10 11 11 10 10

GFSSE_925_temp_078.txt.gz
Temp
19 19 19 19 19 20 22 22 21 22 21 21 21 21 20 19 18 18 18 18 17 17 17 17 17 17 16 16 16 15 16 16 16 16 16 16 15 15 15 15 16 15 15
18 18 18 19 19 20 20 20 18 20 20 20 20 20 19 18 18 17 17 17 17 17 17 16 16 16 16 15 15 15 15 15 15 15 15 15 16 15 15 15 15 15 15
18 18 18 18 18 19 19 19 18 18 19 19 19 19 18 18 17 17 17 17 17 17 17 16 16 15 15 15 14 14 14 14 14 14 15 15 15 15 14 14 14 14 14
18 18 18 18 18 18 19 19 20 17 19 18 18 18 17 17 17 17 17 17 17 17 17 16 16 15 14 14 14 13 14 14 14 14 14 15 15 14 14 14 13 13 13
17 17 17 18 19 19 18 18 17 18 17 17 17 17 17 17 17 16 17 16 16 16 16 16 15 15 14 14 13 13 14 14 14 14 14 14 14 14 13 13 13 13 12
17 17 17 17 19 20 20 19 16 17 18 17 17 17 17 16 16 16 16 16 16 16 15 15 15 14 15 14 13 13 14 13 13 13 13 13 13 13 13 12 12 12 12
16 15 16 17 17 18 18 17 16 17 17 18 17 17 17 16 16 16 16 16 16 15 15 14 14 15 15 15 14 14 13 13 13 13 13 13 13 13 12 12 11 11 11
16 16 16 16 16 16 16 16 16 16 17 17 17 17 16 16 16 16 16 15 15 15 15 15 15 16 15 15 14 13 13 12 12 12 13 12 12 12 12 11 11 11 11
15 15 15 15 15 17 18 17 16 17 17 17 17 17 16 16 15 15 15 15 16 16 16 16 16 15 16 15 15 14 13 12 12 12 12 12 12 12 11 11 11 10 10
15 15 15 15 14 15 15 17 17 17 16 17 17 16 16 15 15 15 15 16 16 16 16 16 16 15 15 15 14 14 13 12 12 12 12 12 12 12 11 11 11 10 10
14 14 14 14 14 16 17 17 17 16 16 15 15 16 15 15 15 15 16 16 16 16 16 16 16 15 15 15 14 14 14 13 12 12 12 12 12 12 11 11 10 10 10
13 14 14 14 14 15 15 16 15 14 14 14 14 16 15 16 16 16 16 16 16 16 17 16 15 15 15 14 14 14 14 13 12 12 11 12 12 12 11 11 10 10 10
13 13 13 13 13 14 15 14 14 14 14 13 14 15 16 16 16 17 15 15 16 16 16 16 15 15 15 15 14 14 13 13 12 12 11 11 11 11 11 11 10 10 10
12 12 12 12 12 12 13 13 13 13 13 13 14 15 15 16 16 16 16 16 16 16 16 16 16 15 15 15 14 14 14 13 12 11 11 11 11 11 11 11 10 10 10
12 12 12 12 12 11 12 13 13 13 12 12 13 14 16 17 16 16 16 16 16 16 16 16 16 15 15 14 15 15 14 13 12 12 11 11 11 11 11 11 10 10 10
12 12 12 12 11 11 12 12 13 13 14 13 13 15 17 17 17 16 16 16 16 16 16 16 17 16 15 15 15 14 14 13 13 12 12 11 11 11 11 11 10 10 10
12 12 12 11 11 11 12 12 12 13 13 14 14 16 16 17 17 17 17 17 16 16 16 16 15 15 15 14 14 14 14 13 13 12 12 11 11 11 11 11 11 11 10
12 12 12 11 11 11 12 12 12 12 13 13 15 16 17 17 18 16 17 16 16 16 16 15 15 15 15 15 14 14 14 14 13 13 13 12 11 11 11 11 11 11 10
12 12 12 11 11 11 12 12 12 13 13 13 14 15 16 17 16 17 17 16 16 15 15 15 15 15 15 14 14 14 14 13 13 13 13 12 12 12 11 11 11 11 11
12 12 12 12 11 12 12 12 12 13 13 14 14 16 15 16 16 16 16 16 16 15 14 15 15 15 15 14 14 14 14 14 14 13 13 13 13 12 12 12 11 11 11
12 12 12 12 11 11 12 12 12 13 13 14 15 16 16 16 16 16 16 15 16 15 15 15 15 14 15 14 14 13 13 14 14 14 13 13 13 12 12 12 11 11 11
12 12 12 12 11 12 12 12 12 13 13 14 15 15 15 16 16 16 15 16 15 15 15 15 15 14 14 14 14 12 10 12 13 13 13 13 13 12 12 12 11 11 11
12 12 12 12 12 11 12 12 13 13 13 14 15 15 15 16 16 16 16 15 15 15 15 15 15 15 14 14 14 14 9 10 10 12 12 13 12 12 12 12 12 11 11
12 12 12 12 12 11 12 12 13 13 13 14 15 16 16 16 16 16 16 16 15 15 15 15 15 15 15 14 12 13 13 12 9 10 11 12 13 12 12 11 11 11 11
12 11 11 12 12 11 12 13 13 14 15 15 15 16 16 16 16 16 16 15 15 15 15 15 15 15 15 14 14 11 11 10 10 10 10 10 10 11 11 11 11 11 11
11 11 11 11 12 11 12 12 13 14 14 15 15 15 15 15 16 15 15 15 15 15 15 15 15 15 15 14 13 13 13 11 9 8 8 9 9 10 10 10 10 10 10

GFSSE_925_temp_081.txt.gz
Temp
18 18 19 20 20 20 19 19 19 20 19 19 19 19 20 19 18 19 18 18 18 18 17 17 17 17 16 16 16 16 16 16 16 16 16 16 16 16 15 15 15 15 15
18 18 19 19 19 19 20 20 19 19 18 19 19 18 18 19 18 18 18 18 18 17 17 17 17 16 16 16 16 16 16 16 16 16 16 16 15 15 15 15 15 14 14
18 18 18 19 19 19 19 19 19 18 19 19 19 19 18 18 18 17 18 18 17 17 17 16 16 16 15 15 15 15 16 16 16 16 15 16 15 15 14 14 14 14 13
18 18 18 18 19 19 19 19 18 18 18 18 19 18 18 18 17 17 17 17 17 17 16 16 16 15 14 14 14 15 15 15 15 15 16 16 15 14 14 13 14 13 13
17 18 18 18 19 19 20 21 20 19 18 18 18 17 17 17 17 17 17 17 17 16 16 16 15 14 14 14 14 14 14 14 15 15 15 15 14 14 14 13 13 13 13
16 17 17 18 18 20 20 20 20 19 18 17 17 17 17 17 17 17 17 17 17 16 16 15 14 14 14 14 14 14 14 14 14 15 14 14 14 13 13 13 12 12 12
16 16 17 18 19 19 19 20 19 19 17 16 17 17 17 17 17 17 17 17 16 16 16 15 14 15 15 14 14 14 14 14 14 14 14 14 13 13 12 12 12 12 12
15 16 16 17 19 18 18 18 19 18 18 18 17 17 17 16 17 17 16 16 16 16 15 14 15 15 15 14 14 14 13 13 14 14 14 14 13 13 12 12 12 11 11
15 15 15 16 18 19 18 17 18 17 17 16 16 17 16 16 16 16 16 16 15 15 15 15 16 16 15 14 13 13 13 12 13 14 14 13 12 12 12 11 11 11 11
14 15 15 15 15 16 18 17 17 17 17 15 15 16 16 16 16 16 16 16 16 16 16 16 15 15 14 13 13 13 13 12 13 13 14 13 12 12 12 11 11 11 10
14 15 15 15 15 15 15 16 16 17 17 16 16 15 15 15 15 15 16 16 16 16 16 15 15 14 14 13 13 13 13 13 13 13 14 12 12 12 11 11 11 10 10
13 14 14 15 14 14 15 16 16 16 16 16 15 14 14 14 14 15 16 16 16 16 16 15 15 14 13 12 12 13 12 12 13 13 13 12 12 12 11 11 11 10 10
13 13 13 14 14 14 15 16 17 15 15 15 14 14 14 15 15 15 15 16 15 14 14 14 13 13 13 13 12 12 12 12 12 13 12 12 12 12 11 11 10 10 10
13 12 13 13 13 14 14 14 14 14 14 13 13 14 14 14 14 14 15 16 16 14 13 13 13 13 14 14 15 14 12 12 12 13 12 12 12 12 11 11 10 10 10
12 12 12 12 12 13 13 14 13 14 13 13 13 13 14 14 14 15 16 16 16 16 15 14 15 14 13 14 14 14 12 12 12 12 12 11 11 11 11 11 11 10 10
12 12 12 12 12 12 13 13 13 12 13 13 13 14 15 16 16 16 15 16 16 16 16 16 15 14 13 14 14 13 12 12 11 11 12 11 11 11 11 11 11 10 10
12 12 12 12 12 12 12 13 13 13 12 13 14 15 16 16 16 16 16 16 16 15 16 15 15 14 14 13 12 12 13 12 12 11 11 12 11 11 11 11 11 10 10
12 12 12 12 12 12 12 13 12 12 13 13 15 15 16 16 18 17 17 17 15 15 16 15 15 15 14 13 12 12 12 12 12 12 11 11 11 11 11 11 11 11 10
12 12 11 11 11 12 12 12 12 12 12 13 15 15 15 17 18 17 16 16 16 16 16 15 15 15 13 12 13 13 13 13 13 12 12 11 11 11 12 11 11 11 11
12 12 12 11 11 12 12 12 12 12 13 14 14 15 14 15 16 16 16 15 16 15 15 15 15 14 13 13 13 13 13 13 13 13 13 12 11 11 11 11 11 11 11
12 12 12 11 11 11 12 12 12 12 13 13 14 14 15 15 15 16 15 18 16 15 15 15 14 13 13 14 12 12 12 13 13 12 13 13 12 12 12 11 11 11 10
12 12 12 12 11 12 12 12 12 12 12 13 13 14 14 15 16 16 17 16 16 14 14 15 14 12 13 14 14 14 16 14 12 12 12 13 13 13 12 12 11 11 11
12 12 12 12 11 11 12 12 12 12 12 12 13 14 15 15 16 16 16 16 15 15 15 15 14 14 14 13 13 15 14 16 14 12 12 12 13 13 13 12 12 11 11
12 12 12 12 12 11 12 12 11 12 12 12 13 15 15 16 15 16 16 16 15 15 15 15 14 14 14 13 12 13 13 12 15 15 11 11 12 13 12 12 12 11 11
13 12 12 12 12 11 11 12 12 12 13 13 13 13 13 15 15 16 15 16 15 16 15 15 14 14 14 13 13 12 10 10 10 13 13 11 10 11 12 13 11 11 11
13 12 12 12 12 12 12 12 12 13 13 13 13 14 13 14 15 15 15 16 16 16 15 15 15 14 14 14 13 13 12 12 11 11 10 11 13 12 11 11 10 11 10